Date String (YYYY-MM-DD hh:mm:ss) UTC,Instrument flags,Ambient pressure (hPa),Sample flow (lpm),Bypass flow (lpm),Sample temperature (°C),Ambient temperature (°C),ASC tube jacket temperature (°C),LED temperature (°C),Box temperature (°C),Sample RH (%),Span deviation,Mass concentration (μg/m³),Mass concentration (μg/m³),Mass concentration (μg/m³)
DateTimeUTC,F1_M11,P_M11,Q1_M11,Q2_M11,T1_M11,T2_M11,T3_M11,T4_M11,T5_M11,U1_M11,ZSPAN_M11,X2_M11,X0_M11,X1_M11
2023-05-03 15:00:00,,0828.7,5.00,0.00,28.9,27.5,00.0,37.2,30.4,18.6,0000.0,0004.91,0010.84,0003.48
2023-05-03 15:01:00,,0828.8,5.01,0.00,28.9,27.5,00.0,37.2,30.4,18.8,0000.0,0004.91,0011.06,0003.48
2023-05-03 15:02:00,,0828.7,5.00,0.00,28.9,27.5,00.0,37.2,30.5,19.2,0000.0,0004.97,0011.30,0003.50
2023-05-03 15:03:00,,0828.7,4.99,0.00,28.9,27.5,00.0,37.2,30.5,19.3,0000.0,0004.97,0012.34,0003.51
2023-05-03 15:04:00,,0828.8,4.99,0.00,28.9,27.5,00.0,37.2,30.4,19.2,0000.0,0005.01,0012.89,0003.54
2023-05-03 15:05:00,,0828.8,5.00,0.00,28.9,27.6,00.0,37.2,30.5,18.6,0000.0,0005.03,0013.16,0003.55
2023-05-03 15:06:00,,0828.8,5.00,0.00,28.9,27.6,00.0,37.2,30.5,18.8,0000.0,0005.02,0013.35,0003.55
2023-05-03 15:07:00,,0828.8,5.00,0.00,29.0,27.6,00.0,37.3,30.5,19.2,0000.0,0005.03,0013.28,0003.56
2023-05-03 15:08:00,,0828.8,5.01,0.00,29.0,27.6,00.0,37.3,30.5,19.2,0000.0,0005.02,0013.30,0003.57
2023-05-03 15:09:00,,0828.7,5.00,0.00,29.0,27.6,00.0,37.3,30.5,19.0,0000.0,0005.00,0013.16,0003.58
2023-05-03 15:10:00,,0828.8,5.00,0.00,29.0,27.6,00.0,37.3,30.5,18.7,0000.0,0005.01,0013.14,0003.59
2023-05-03 15:11:00,,0828.8,4.98,0.00,29.0,27.6,00.0,37.3,30.5,17.6,0000.0,0004.99,0013.07,0003.59
2023-05-03 15:12:00,,0828.8,5.00,0.00,29.0,27.6,00.0,37.3,30.5,17.9,0000.0,0004.99,0012.93,0003.59
2023-05-03 15:13:00,,0828.7,5.00,0.00,29.0,27.6,00.0,37.3,30.6,17.6,0000.0,0004.98,0012.49,0003.58
2023-05-03 15:14:00,,0828.7,5.00,0.00,29.0,27.6,00.0,37.3,30.6,17.6,0000.0,0004.96,0011.60,0003.55
2023-05-03 15:15:00,,0828.7,5.00,0.00,29.0,27.6,00.0,37.3,30.6,17.4,0000.0,0004.99,0010.98,0003.54
2023-05-03 15:16:00,,0828.7,5.00,0.00,29.0,27.6,00.0,37.3,30.6,17.6,0000.0,0004.93,0010.80,0003.54
2023-05-03 15:17:00,,0828.7,5.00,0.00,29.0,27.6,00.0,37.3,30.6,18.1,0000.0,0004.96,0011.18,0003.54
2023-05-03 15:18:00,,0828.7,5.01,0.00,29.0,27.6,00.0,37.3,30.6,18.2,0000.0,0004.96,0011.59,0003.53
2023-05-03 15:19:00,,0828.6,5.00,0.00,29.0,27.6,00.0,37.3,30.6,17.9,0000.0,0004.96,0011.92,0003.52
2023-05-03 15:20:00,,0828.6,5.01,0.00,29.0,27.6,00.0,37.3,30.6,17.6,0000.0,0004.93,0011.93,0003.51
2023-05-03 15:21:00,,0828.7,5.00,0.00,29.0,27.6,00.0,37.4,30.5,17.8,0000.0,0004.90,0012.15,0003.49
2023-05-03 15:22:00,,0828.7,5.00,0.00,29.0,27.6,00.0,37.4,30.5,17.9,0000.0,0004.83,0012.05,0003.48
2023-05-03 15:23:00,,0828.6,4.99,0.00,29.1,27.6,00.0,37.4,30.6,18.0,0000.0,0004.87,0012.21,0003.48
2023-05-03 15:24:00,,0828.7,5.00,0.00,29.1,27.6,00.0,37.4,30.6,18.2,0000.0,0004.86,0012.69,0003.48
2023-05-03 15:25:00,,0828.6,5.00,0.00,29.1,27.6,00.0,37.4,30.7,18.5,0000.0,0004.89,0013.09,0003.50
2023-05-03 15:26:00,,0828.6,5.00,0.00,29.1,27.7,00.0,37.4,30.7,18.4,0000.0,0004.87,0013.23,0003.49
2023-05-03 15:27:00,,0828.6,5.00,0.00,29.1,27.7,00.0,37.4,30.6,18.7,0000.0,0004.86,0012.95,0003.48
2023-05-03 15:28:00,,0828.7,4.99,0.00,29.1,27.7,00.0,37.4,30.7,18.5,0000.0,0004.90,0012.85,0003.48
2023-05-03 15:29:00,,0828.6,5.00,0.00,29.1,27.7,00.0,37.4,30.7,18.9,0000.0,0004.92,0012.46,0003.49
2023-05-03 15:30:00,,0828.6,5.00,0.00,29.1,27.7,00.0,37.4,30.7,19.1,0000.0,0004.94,0012.05,0003.50
2023-05-03 15:31:00,,0828.6,4.98,0.00,29.1,27.7,00.0,37.4,30.7,19.1,0000.0,0005.01,0012.12,0003.52
2023-05-03 15:32:00,,0828.6,4.99,0.00,29.1,27.7,00.0,37.4,30.7,19.5,0000.0,0005.00,0011.45,0003.54
2023-05-03 15:33:00,,0828.6,5.01,0.00,29.1,27.7,00.0,37.5,30.7,19.5,0000.0,0005.05,0011.57,0003.55
2023-05-03 15:34:00,,0828.6,5.00,0.00,29.1,27.7,00.0,37.5,30.7,19.4,0000.0,0004.99,0011.54,0003.56
2023-05-03 15:35:00,,0828.7,5.00,0.00,29.1,27.7,00.0,37.5,30.7,19.2,0000.0,0004.95,0010.86,0003.57
2023-05-03 15:36:00,,0828.6,4.99,0.00,29.1,27.7,00.0,37.5,30.7,19.1,0000.0,0004.92,0010.46,0003.58
2023-05-03 15:37:00,,0828.6,4.99,0.00,29.1,27.8,00.0,37.5,30.7,18.8,0000.0,0004.91,0010.23,0003.58
2023-05-03 15:38:00,,0828.6,5.01,0.00,29.2,27.8,00.0,37.5,30.7,18.9,0000.0,0004.95,0010.50,0003.59
2023-05-03 15:39:00,,0828.6,5.01,0.00,29.2,27.8,00.0,37.5,30.7,19.0,0000.0,0004.90,0010.20,0003.61
2023-05-03 15:40:00,,0828.6,4.99,0.00,29.2,27.8,00.0,37.5,30.7,19.4,0000.0,0004.88,0010.15,0003.62
2023-05-03 15:41:00,,0828.6,5.01,0.00,29.2,27.8,00.0,37.5,30.7,19.4,0000.0,0004.87,0010.28,0003.63
2023-05-03 15:42:00,,0828.6,5.01,0.00,29.2,27.8,00.0,37.5,30.8,19.5,0000.0,0004.88,0010.33,0003.63
2023-05-03 15:43:00,,0828.6,5.01,0.00,29.2,27.8,00.0,37.5,30.8,18.5,0000.0,0004.87,0010.45,0003.63
2023-05-03 15:44:00,,0828.6,4.99,0.00,29.2,27.8,00.0,37.5,30.8,18.0,0000.0,0004.82,0010.34,0003.63
2023-05-03 15:45:00,,0828.6,5.00,0.00,29.2,27.8,00.0,37.5,30.8,18.2,0000.0,0004.85,0010.36,0003.62
2023-05-03 15:46:00,,0828.6,5.01,0.00,29.2,27.8,00.0,37.5,30.8,18.5,0000.0,0004.92,0010.62,0003.64
2023-05-03 15:47:00,,0828.6,5.00,0.00,29.2,27.8,00.0,37.6,30.8,18.5,0000.0,0004.94,0010.67,0003.64
2023-05-03 15:48:00,,0828.6,5.00,0.00,29.2,27.8,00.0,37.6,30.8,18.8,0000.0,0004.95,0010.59,0003.65
2023-05-03 15:49:00,,0828.6,4.99,0.00,29.2,27.9,00.0,37.6,30.8,19.1,0000.0,0004.98,0011.23,0003.67
2023-05-03 15:50:00,,0828.6,5.00,0.00,29.2,27.9,00.0,37.6,30.8,18.7,0000.0,0005.03,0011.33,0003.67
2023-05-03 15:51:00,,0828.6,5.00,0.00,29.2,27.9,00.0,37.6,30.8,19.2,0000.0,0005.05,0012.34,0003.67
2023-05-03 15:52:00,,0828.6,5.01,0.00,29.2,27.8,00.0,37.6,30.8,19.3,0000.0,0005.10,0012.59,0003.68
2023-05-03 15:53:00,,0828.6,4.99,0.00,29.2,27.8,00.0,37.6,30.9,19.0,0000.0,0005.07,0012.56,0003.67
2023-05-03 15:54:00,,0828.6,4.99,0.00,29.2,27.8,00.0,37.6,30.8,19.3,0000.0,0005.07,0012.58,0003.68
2023-05-03 15:55:00,,0828.6,5.01,0.00,29.3,27.8,00.0,37.6,30.8,19.5,0000.0,0005.12,0013.00,0003.70
2023-05-03 15:56:00,,0828.6,5.01,0.00,29.3,27.8,00.0,37.6,30.8,19.2,0000.0,0005.14,0013.79,0003.72
2023-05-03 15:57:00,,0828.6,4.98,0.00,29.3,27.8,00.0,37.6,30.8,19.4,0000.0,0005.16,0013.81,0003.73
2023-05-03 15:58:00,,0828.6,5.00,0.00,29.3,27.8,00.0,37.6,30.8,19.5,0000.0,0005.18,0013.83,0003.73
2023-05-03 15:59:00,,0828.6,5.00,0.00,29.3,27.8,00.0,37.6,30.8,19.5,0000.0,0005.24,0015.41,0003.73
